Location: Alafon
(8.4500°N, 4.2333°E)
Time: 23:13:17
(UTC+00:00)

A-11 Canister half - Visible Passes

Search period start: 28 July 2021 00:00
Search period end: 07 August 2021 00:00
Orbit: 1527 x 1682 km, 47.3° (Epoch: 28 July)

Date Brightness Start Highest point End Pass type
(mag) Time Alt. Az. Time Alt. Az. Time Alt. Az.
28 Jul 8.8 20:04:19 10° NW 20:13:49 77° NE 20:15:33 62° ESE visible
28 Jul 10.9 22:12:06 10° W 22:13:53 14° W 22:13:53 14° W visible
29 Jul 8.9 19:42:40 10° NW 19:52:10 72° NE 19:55:23 46° ESE visible
29 Jul 10.7 21:50:04 10° W 21:53:43 19° WSW 21:53:43 19° WSW visible
30 Jul 9.0 19:21:03 10° NNW 19:30:31 68° NE 19:35:16 33° ESE visible
30 Jul 10.4 21:28:04 10° WNW 21:33:36 23° WSW 21:33:36 23° WSW visible
31 Jul 9.1 18:59:24 10° NNW 19:08:51 63° NE 19:15:13 23° ESE visible
31 Jul 10.2 21:06:06 10° WNW 21:13:30 26° SW 21:13:33 26° SW visible
01 Aug 9.2 18:37:47 10° NNW 18:47:12 59° NE 18:55:13 14° SE visible
01 Aug 10.1 20:44:10 10° WNW 20:51:52 29° SW 20:53:34 27° SW visible
02 Aug 9.3 18:16:10 10° NNW 18:25:32 55° NE 18:34:37 10° SE visible
02 Aug 10.1 20:22:16 10° WNW 20:30:13 31° SW 20:33:37 25° SSW visible
03 Aug 10.1 20:00:22 10° WNW 20:08:34 33° SW 20:13:43 20° S visible
04 Aug 10.0 19:38:30 10° WNW 19:46:55 36° SW 19:53:51 15° S visible
05 Aug 10.0 19:16:39 10° WNW 19:25:17 39° SW 19:33:46 10° SSE visible
06 Aug 10.0 18:54:49 10° WNW 19:03:38 42° SW 19:12:17 10° SSE visible
